[[{"header":{"parameterUnit":"m.s-1","parameterCategory":1,"la1":30.2991,"la2":30.254,"lo1":-89.0895,"lo2":-89.0444,"dy":0.0017,"dx":0.0017,"nx":28,"ny":28,"refTime":"2023-08-08T21:00:00:Z","depth":0,"parameterNumber":2,"parameterNumberName":"U-component_of_WINDS"},"data":[0,0,0,0,0,0,0,0,0,0,0,0,0,0,0,0,0,0,0,0,0,0,0,0,0,0,0,0,0,0,0,0,0,0,0,0,0,0,0,0,0,0,0,0,0,0,0,0,0,0,0,0,0,0,0,0,0,0,5.4837,5.4838,0,5.4961,5.4962,5.4964,5.4882,5.4878,5.4874,5.4871,5.4997,5.5004,5.5011,0,0,0,0,0,0,0,0,0,0,0,0,0,5.4526,5.4532,5.4837,5.4838,5.484,5.4961,5.4963,5.4964,5.4882,5.4878,5.4873,5.4869,5.4995,5.5003,5.5012,0,0,0,0,0,0,0,0,0,0,0,0,0,5.4657,5.4534,5.4837,5.4814,5.4813,5.4961,5.4963,5.4965,5.4883,5.4878,5.4872,5.4867,5.4992,5.5003,5.5013,5.519,0,0,5.5044,5.5049,0,0,0,0,0,0,0,0,5.4649,5.4668,5.4816,5.4816,5.4815,5.49,5.4899,5.504,5.4885,5.4857,5.4871,5.4864,5.497,5.4981,5.5017,5.5196,5.5201,5.5045,5.5051,5.5056,5.5059,0,0,0,0,0,0,0,5.4641,5.4662,5.4886,5.4818,5.4817,5.4796,5.4809,5.4926,5.4943,5.4859,5.4853,5.4869,5.4968,5.5007,5.502,5.5203,5.5045,5.5054,5.506,5.5065,5.5528,5.5533,0,0,0,0,0,0,5.4634,5.4655,5.4882,5.489,5.4717,5.4806,5.482,5.4879,5.4942,5.4946,5.4873,5.4864,5.4993,5.5008,5.5024,5.5231,5.5056,5.5066,5.5071,5.5522,5.5529,5.5535,0,0,0,0,0,0,5.4627,5.4655,5.4877,5.4771,5.4798,5.4818,5.4884,5.4884,5.4923,5.4953,5.4956,5.491,5.4989,5.5009,5.5148,5.5235,5.507,5.508,5.5514,5.5524,5.5532,5.565,0,0,0,0,0,0,5.4619,5.4653,5.4721,5.4773,5.4804,5.5001,5.4889,5.489,5.4941,5.493,5.4988,5.4992,5.4986,5.5133,5.5158,5.5246,5.5088,5.5507,5.5519,5.5529,5.5639,5.5662,5.5683,0,0,0,0,0,5.4608,5.4751,5.4725,5.4753,5.489,5.5006,5.5023,5.5013,5.4948,5.5016,5.5035,5.4991,5.5222,5.5148,5.5176,5.5268,5.5501,5.5515,5.5528,5.5629,5.5658,5.5682,0,0,0,0,0,0,5.4709,5.4757,5.4729,5.4893,5.4946,5.4992,5.5077,5.5044,5.5116,5.5103,5.5087,5.5101,5.5245,5.5271,5.5188,5.544,5.5351,5.5371,5.5418,5.5445,5.5467,5.5457,5.5096,0,0,0,0,0,5.475,5.4841,5.4878,5.5019,5.5047,5.5058,5.5108,5.5095,5.5149,5.5171,5.52,5.5253,5.5337,5.5393,5.5473,5.5642,5.5652,5.5719,5.5741,5.5759,5.5776,5.5863,5.5892,5.5581,5.558,5.558,0,0,5.4837,5.4874,5.4933,5.504,5.5079,5.5172,5.5077,5.518,5.5248,5.5186,5.5318,5.5341,5.54,5.5554,5.5623,5.5579,5.5864,5.5777,5.5791,5.5798,5.588,5.591,5.5936,5.559,5.5588,5.5587,0,0,5.504,5.508,5.5199,5.524,5.53,5.5306,5.5335,5.5385,5.5397,5.5529,5.5484,5.5564,5.5711,5.5753,5.5793,5.601,5.597,5.6036,5.615,5.6236,5.626,5.6282,5.6355,5.6383,5.6053,5.6054,5.6054,0,5.514,5.5279,5.5265,5.537,5.5417,5.5365,5.5484,5.5525,5.5608,5.5641,5.5591,5.5771,5.5807,5.5968,5.602,5.6056,5.6086,5.6029,5.6258,5.628,5.6299,5.6369,5.6398,5.6061,5.606,5.606,5.6059,0,5.5396,5.5493,5.5582,5.5662,5.5719,5.5832,5.5833,5.5893,5.5875,5.5885,5.6018,5.6059,5.6144,5.6182,5.6166,5.634,5.631,5.626,5.617,5.6337,5.6402,5.6429,5.6072,5.6069,5.6067,5.6065,0,0,5.5668,5.5737,5.5769,5.5803,5.5865,5.5938,5.6047,5.6129,5.6179,5.6238,5.6326,5.645,5.6402,5.6448,5.6437,5.6512,5.6676,5.6452,5.6452,5.6489,5.6865,5.6901,5.6932,5.6651,5.6656,5.666,5.6859,0,5.5872,5.6061,5.6051,5.6227,5.6314,5.6264,5.6358,5.6405,5.6418,5.6492,5.6505,5.6592,5.6525,5.6551,5.6624,5.6641,5.6751,5.6627,5.673,5.6734,5.6714,5.6967,5.7006,5.7192,5.6885,5.6889,5.6893,0,5.6136,5.6202,5.6387,5.6432,5.6468,5.6553,5.6625,5.6698,5.6749,5.6752,5.6802,5.6777,5.6884,5.6793,5.6939,5.6854,5.6896,5.6911,5.6918,5.6925,5.6822,5.6978,5.7251,5.7278,5.6933,5.693,5.6927,0,5.6311,5.6446,5.6573,5.6605,5.6661,5.6721,5.6747,5.6792,5.6841,5.6905,5.6935,5.7011,5.7052,5.711,5.7105,5.704,5.7252,5.7161,5.7255,5.7255,5.7301,5.7297,5.7582,5.7333,5.7333,5.7332,5.7332,0,5.6539,5.6653,5.6652,5.673,5.6856,5.6842,5.6966,5.6986,5.7026,5.7105,5.7068,5.7143,5.7133,5.7208,5.7205,5.7323,5.7343,5.7347,5.7344,5.7349,5.7348,5.7374,5.736,5.734,5.7338,5.7337,5.7335,0,5.6755,5.6759,5.6894,5.6935,5.6948,5.7038,5.7073,5.7146,5.7154,5.7255,5.7277,5.729,5.7376,5.7377,5.7476,5.7474,5.7618,5.7602,5.7601,5.7596,5.7689,5.7679,5.7998,5.8037,5.7766,5.7769,5.7771,0,5.6898,5.6985,5.7035,5.7085,5.7114,5.7196,5.7245,5.7234,5.7287,5.7349,5.7414,5.7496,5.7561,5.77,5.7717,5.7792,5.7775,5.7882,5.7786,5.7787,5.7773,5.7766,5.7773,5.79,5.7903,5.7905,5.7907,0,5.7152,5.7149,5.7221,5.7293,5.7353,5.7409,5.7462,5.7505,5.7499,5.7559,5.7646,5.7697,5.7796,5.7877,5.7948,5.7973,5.7939,5.7937,5.7962,5.7967,5.796,5.7961,5.7648,5.793,5.7928,5.7926,5.7925,5.7924,5.7334,5.7406,5.7452,5.7532,5.757,5.7619,5.7688,5.7704,5.7776,5.7856,5.7845,5.7941,5.7986,5.8078,5.8109,5.8183,5.8146,5.8183,5.8192,5.8201,5.8209,5.7951,5.8196,5.8196,5.8195,5.8195,5.8194,0,5.7582,5.7608,5.7682,5.7755,5.7818,5.778,5.7835,5.789,5.7974,5.802,5.8084,5.8181,5.8259,5.8282,5.8356,5.841,5.8396,5.843,5.8424,5.843,5.824,5.8209,5.844,5.844,5.844,5.844,5.844,5.8439,5.7718,5.7838,5.784,5.7977,5.8002,5.8095,5.8129,5.8173,5.8208,5.8319,5.8383,5.8397,5.8433,5.8509,5.8577,5.8581,5.8609,5.8649,5.8647,5.8468,5.8444,5.842,5.8391,5.8656,5.8656,5.883,5.8831,5.8832]},{"header":{"parameterUnit":"m.s-1","parameterCategory":1,"la1":30.2991,"la2":30.254,"lo1":-89.0895,"lo2":-89.0444,"dy":0.0017,"dx":0.0017,"nx":28,"ny":28,"refTime":"2023-08-08T21:00:00:Z","depth":0,"parameterNumber":3,"parameterNumberName":"V-component_of_WINDS"},"data":[0,0,0,0,0,0,0,0,0,0,0,0,0,0,0,0,0,0,0,0,0,0,0,0,0,0,0,0,0,0,0,0,0,0,0,0,0,0,0,0,0,0,0,0,0,0,0,0,0,0,0,0,0,0,0,0,0,0,3.4943,3.4944,0,3.4999,3.5,3.5,3.4979,3.4978,3.4976,3.4975,3.503,3.5032,3.5035,0,0,0,0,0,0,0,0,0,0,0,0,0,3.4813,3.4816,3.4943,3.4944,3.4945,3.4999,3.5,3.5001,3.4979,3.4978,3.4976,3.4975,3.5029,3.5032,3.5035,0,0,0,0,0,0,0,0,0,0,0,0,0,3.4869,3.4816,3.4943,3.494,3.4941,3.4999,3.5,3.5001,3.4979,3.4978,3.4976,3.4974,3.5028,3.5031,3.5035,3.5098,0,0,3.5048,3.5049,0,0,0,0,0,0,0,0,3.4866,3.4874,3.494,3.4941,3.4941,3.498,3.4974,3.5033,3.498,3.4965,3.4975,3.4973,3.5014,3.5019,3.5034,3.5101,3.5103,3.5048,3.505,3.5052,3.5053,0,0,0,0,0,0,0,3.4862,3.4871,3.4965,3.4941,3.4942,3.4935,3.4941,3.4985,3.5,3.4966,3.4964,3.4972,3.5014,3.503,3.5035,3.5104,3.5048,3.5051,3.5054,3.5055,3.5222,3.5224,0,0,0,0,0,0,3.4859,3.4868,3.4963,3.4967,3.4898,3.4939,3.4945,3.497,3.4999,3.5002,3.4973,3.497,3.5024,3.5031,3.5037,3.5111,3.5052,3.5056,3.5058,3.522,3.5223,3.5225,0,0,0,0,0,0,3.4856,3.4867,3.4961,3.4917,3.4929,3.4943,3.497,3.4972,3.4988,3.5005,3.5007,3.4987,3.5023,3.5031,3.5083,3.5112,3.5057,3.5061,3.5218,3.5221,3.5224,3.526,0,0,0,0,0,0,3.4852,3.4867,3.4892,3.4918,3.4931,3.5008,3.4972,3.4974,3.4995,3.4992,3.5018,3.5021,3.5022,3.5077,3.5087,3.5117,3.5064,3.5215,3.5219,3.5223,3.5256,3.5264,3.5271,0,0,0,0,0,3.4848,3.49,3.4893,3.4905,3.4963,3.5009,3.5017,3.5018,3.4997,3.5022,3.5032,3.502,3.5108,3.5082,3.5093,3.5125,3.5213,3.5218,3.5223,3.5253,3.5262,3.527,0,0,0,0,0,0,3.4876,3.4903,3.4896,3.4959,3.4982,3.5006,3.5037,3.5029,3.5058,3.5054,3.5053,3.5059,3.5112,3.5124,3.5095,3.5186,3.5157,3.5164,3.5176,3.5186,3.5193,3.5188,3.5067,0,0,0,0,0,3.489,3.4927,3.4948,3.5,3.5012,3.5023,3.5043,3.5042,3.5066,3.5075,3.509,3.5112,3.5144,3.5166,3.5197,3.5258,3.5262,3.5285,3.5292,3.5298,3.5303,3.5334,3.5344,3.524,3.524,3.524,0,0,3.4919,3.4938,3.4961,3.5007,3.5025,3.506,3.5031,3.5071,3.5097,3.5081,3.513,3.5141,3.5166,3.5222,3.5247,3.5233,3.5333,3.5303,3.5308,3.5311,3.534,3.5349,3.5358,3.5243,3.5243,3.5242,0,0,3.4988,3.5008,3.5053,3.5071,3.5098,3.5104,3.5115,3.514,3.5147,3.5196,3.5184,3.5214,3.5271,3.5288,3.5305,3.5379,3.5367,3.5389,3.5426,3.5456,3.5464,3.5471,3.5495,3.5504,3.5394,3.5394,3.5395,0,3.502,3.5075,3.5077,3.5117,3.5136,3.5124,3.5168,3.5185,3.5221,3.5234,3.5218,3.5287,3.5303,3.5361,3.5379,3.5394,3.5404,3.5385,3.5463,3.547,3.5476,3.55,3.5509,3.5397,3.5397,3.5396,3.5396,0,3.5111,3.515,3.5182,3.5217,3.524,3.5283,3.5289,3.5312,3.5308,3.5315,3.5364,3.5383,3.5416,3.543,3.5427,3.5488,3.5478,3.5462,3.5433,3.5489,3.551,3.5519,3.54,3.5399,3.5399,3.5398,0,0,3.5202,3.5236,3.5248,3.5262,3.5291,3.5319,3.536,3.5393,3.5411,3.5436,3.5468,3.5516,3.5501,3.5519,3.5518,3.5544,3.5599,3.5525,3.5526,3.5537,3.5664,3.5674,3.5685,3.5592,3.5593,3.5595,3.5661,0,3.5273,3.5345,3.5346,3.5411,3.5445,3.5432,3.5467,3.5487,3.5494,3.5523,3.553,3.5563,3.5542,3.5553,3.5578,3.5587,3.5624,3.5582,3.562,3.5621,3.5613,3.5697,3.5708,3.577,3.567,3.5671,3.5672,0,3.5365,3.5393,3.5461,3.5483,3.5497,3.5528,3.5557,3.5585,3.5607,3.561,3.563,3.5624,3.5663,3.5633,3.5685,3.5657,3.5672,3.5678,3.568,3.5683,3.5649,3.57,3.579,3.5799,3.5686,3.5685,3.5684,0,3.5422,3.5476,3.5523,3.5537,3.5563,3.5585,3.5597,3.5617,3.5635,3.566,3.5672,3.5701,3.5717,3.5739,3.574,3.5718,3.5792,3.5763,3.5794,3.5794,3.581,3.5808,3.5902,3.5822,3.5822,3.5822,3.5821,0,3.55,3.5542,3.5549,3.5578,3.5624,3.5624,3.5669,3.5679,3.5696,3.5725,3.5716,3.5743,3.5744,3.5771,3.5772,3.5814,3.5822,3.5824,3.5824,3.5824,3.5824,3.5833,3.5829,3.5824,3.5823,3.5823,3.5823,0,3.5571,3.5578,3.5628,3.5649,3.5655,3.5687,3.5704,3.573,3.5736,3.5773,3.5782,3.5791,3.5822,3.5826,3.5863,3.5863,3.5913,3.5909,3.5906,3.5905,3.5935,3.5932,3.6038,3.605,3.5963,3.5964,3.5965,0,3.562,3.5652,3.5676,3.5695,3.5708,3.5739,3.5758,3.5759,3.5778,3.5804,3.5827,3.5858,3.5882,3.5933,3.5942,3.5969,3.5964,3.6,3.5969,3.5967,3.5963,3.596,3.5962,3.6005,3.6006,3.6007,3.6008,0,3.5705,3.5707,3.5735,3.5764,3.5787,3.5809,3.5831,3.5846,3.5849,3.5872,3.5904,3.5923,3.596,3.599,3.6017,3.6027,3.6017,3.6017,3.6026,3.6026,3.6022,3.6023,3.5921,3.6015,3.6014,3.6014,3.6013,3.6013,3.5766,3.5792,3.5813,3.5844,3.586,3.5879,3.5904,3.5913,3.594,3.5971,3.5969,3.6004,3.6022,3.6057,3.607,3.6096,3.6084,3.6097,3.6099,3.6102,3.6104,3.6019,3.6101,3.6101,3.61,3.61,3.61,0,3.5849,3.5861,3.5889,3.5919,3.5943,3.5932,3.5954,3.5975,3.6006,3.6024,3.6048,3.6084,3.6112,3.6123,3.615,3.6169,3.6165,3.6176,3.6173,3.6175,3.6114,3.6104,3.6178,3.6178,3.6178,3.6178,3.6178,3.6178,3.5895,3.5939,3.5942,3.5993,3.6004,3.6039,3.6052,3.6069,3.6083,3.6124,3.6147,3.6154,3.6169,3.6197,3.6221,3.6223,3.6233,3.6246,3.6246,3.6188,3.618,3.6173,3.6162,3.6248,3.6248,3.6304,3.6305,3.6305]}]]